FENGYUN 1C DEB, 36660

Orbit data source: Space-Track

FENGYUN 1C DEB, 36660 is space debris in SSO originally from a launch on Mon, 10 May 1999 UTC launched from the Taiyaun Space Center, China (TSC). Fengyun 1C debris stems from the Chinese weather satellite Fengyun-1C, which was intentionally destroyed by a Chinese anti-satellite missile in 2007. This event dramatically increased the amount of space debris, with thousands of trackable fragments posing hazards to satellites and human spaceflight. The Fengyun 1C debris cloud has become a focal point in discussions about space sustainability and the need for international regulations to prevent the creation of new debris.

Loading next visibility...
Identifier
36660, 1999-025DYE
Orbit
SSO
Country
Flag of CNCN / PRC
Related business
Manufacturer
Unknown
Mission
Spacecraft
Bus & Motor
Unknown
Mass
Unknown
Launch date (UTC)
1999-05-10 (27 years ago)
Launch vehicle
Unknown
Launch site
Taiyaun Space Center, China (TSC)
Object type
Payload
Rocket body
Debris
Shape & HBR
Unknown shape, 0.1 m
Radar Cross Section
Medium (>0.1 m² and <1 m²)

Expand to show TLE details & history
Last TLE update: 9 months ago

TLE from 9 months ago
0 FENGYUN 1C DEB
1 36660U 99025DYE 25238.24989481  .00000674  00000-0  37267-3 0  9996
2 36660  98.6209 242.6043 0046756 181.8370 178.2639 14.14032655618488
Epoch: 2025-08-26T05:59Z
TLE epoch observation values (Epoch: 2025-08-26T05:59:50.911Z)
Latitude
-0.00002°
Longitude
177.89787°
Altitude
882.281 km
Speed
7.394 km/s
True Right ascension
16h 10m 25s
True Declination
0° 00' 00"
Sunlit
Object was in daylight at epoch
Visualization orbit readout
Latitude
Unknown
Longitude
Unknown
Altitude
Unknown
Speed
Unknown
Apparent Right ascension
Unknown
Apparent Declination
Unknown
Sunlit
N/A
Visualization observer readout
Local Sidereal Time
21:45:29
Azimuth
Unknown
Elevation
Unknown
Doppler factor
Unknown
Orbital elements
Apogee altitude
876.529 km
Perigee altitude
809.005 km
Semi-major axis
7,220.904 km
Eccentricity
0.00468
Inclination
98.6209°
RAAN
242.6043°
Arg. of periapsis
181.837°
True anomaly
178.28004°
Mean anomaly
178.2639°
Eccentric anomaly
178.27198°
Mean motion
3.53717 °/min
Orbital period
101.78 mins
BSTAR
0.00037267
Loading maneuver chart data...
Computing Atmospheric mass density...
Loading historical data...
Loading historical data...
Loading historical data...
Loading historical data...
Loading historical data...
Loading historical data...
Loading historical data...

Documentation

Showing up to 5 results
|